sat.trackr.live / text

‹ back to catalog

HUBBLE 7

NORAD 64592 · 2025-135BS

PAYLOAD ACTIVE UNKNOWN

§ Identity

Operator
Country
US
Launch date
2025-06-23
Launch site
AFWTR
Launch vehicle
Mass (kg)
RCS (m²)

External: N2YO · Heavens-Above · Gunter

§ Orbital elements

Epoch: 2026-05-25T04:17:53.791584Z

Period
96.40 min
Inclination
97.7730°
Eccentricity
0.0004161
Mean motion
14.93718073 rev/d
Perigee alt
583.5 km
Apogee alt
589.3 km
Semi-major
6,964.5 km
B*
1.3823e-4
RAAN
260.1187°
Arg perigee
74.9430°
Mean anomaly
285.2250°
Rev number
5,047

§ Raw data

HUBBLE 71 64592U 25135BS  26145.17909481  .00001406  00000+0  13823-3 0  99992 64592  97.7730 260.1187 0004161  74.9430 285.2250 14.93718073 50478

JSON: /api/v1/satellites/64592 · /tle

For live sub-satellite position, see the globe view (requires WebGL).

§ Visibility from observer

Set your observer location to see the next 7 days of passes ≥ 10°. The values pass through the URL so the page stays shareable.

No JS? Fill the form by hand. The geolocation button needs JavaScript.

§ Radio — SatNOGS DB

ModeDescriptionDownlinkUplink
FM Mode S - Transmitter 2.201 GHz
GMSK Mode U - GMSK4k8 401.100 MHz
FM Mode U - Transmitter 2 402.790 MHz

3 transmitters · refreshed weekly from db.satnogs.org